FLOCK 3P-15

Last updated on Wed Feb 14 2018 16:20:33 GMT+0000 (Coordinated Universal Time)

1 42039U 17008CV 18044.94324975 .00001082 00000-0 47698-4 0 9993 2 42039 97.4656 110.5370 0009396 90.1143 270.1171 15.23928960 54518
UTC large
Height (km)
Speed (km/s)
/
Latitude / Longitude
Inclination (degrees)
Orbital Period (minutes)
Azimuth
Elevation
Range (km)
Doppler Factor

Next 0 passes for location: London (51.5072 / 0.1276)

Sorry there are no passes over London.